Brenham, TX

11:21 PM CST on December 17, 2017 (GMT -0600)
Brenham

Weather History for K11R - May, 2013

Change the Weather History Date:

Tuesday, May 28, 2013

  Actual Average (KCLL) Record (KCLL)
Temperature  
Mean Temperature 84 °F -  
Max Temperature 93 °F 88 °F 98 °F (1958)
Min Temperature 74 °F 67 °F 53 °F (1961)
Cooling Degree Days 18    
Growing Degree Days 34 (Base 50)    
Moisture  
Dew Point 70 °F    
Average Humidity 68    
Maximum Humidity 88    
Minimum Humidity 41    
Precipitation  
Precipitation 0.00 in - - ()
Sea Level Pressure  
Sea Level Pressure 29.89 in    
Wind  
Wind Speed 10 mph (SSE)    
Max Wind Speed 18 mph    
Max Gust Speed 31 mph    
Visibility 10 miles    
Events      
Averages and records for this station are not official NWS values.
T = Trace of Precipitation, MM = Missing Value Source: NWS Daily Summary

Daily Weather History Graph

Daily Weather History Graph

Search for Another Location

Airport or City:

Trip Planner

Search our weather history database for the weather conditions in past years. The results will help you decide how hot, cold, wet, or windy it might be!

Date:

Astronomy

May. 28, 2013 Rise Set
Actual Time 6:25 AM CDT 8:20 PM CDT
Civil Twilight 5:58 AM CDT 8:47 PM CDT
Nautical Twilight 5:25 AM CDT 9:20 PM CDT
Astronomical Twilight 4:51 AM CDT 9:54 PM CDT
Moon 11:54 PM CDT (5/28) 10:08 AM CDT (5/28)
Length of Visible Light 14h 49m
Length of Day
13h 55m
Waning Gibbous, 82% of the Moon is Illuminated
May 28
Waning Gibbous
May 31
Last Quarter
Jun 8
New
Jun 16
First Quarter
Jun 23
Full

Hourly Weather History & Observations

Time (CDT) Temp. Heat Index Dew Point Humidity Pressure Visibility Wind Dir Wind Speed Gust Speed Precip Events Conditions
12:15 AM 76.5 °F - 70.2 °F 81% 29.96 in 10.0 mi SSE 8.1 mph - N/A   Clear
12:35 AM 76.1 °F - 70.5 °F 83% 29.96 in 10.0 mi SSE 8.1 mph - N/A   Clear
12:55 AM 75.7 °F - 70.9 °F 85% 29.95 in 10.0 mi SSE 8.1 mph - N/A   Clear
1:15 AM 76.1 °F - 71.2 °F 85% 29.94 in 10.0 mi SSE 10.4 mph 16.1 mph N/A   Scattered Clouds
1:35 AM 76.1 °F - 71.4 °F 85% 29.93 in 10.0 mi SSE 9.2 mph - N/A   Scattered Clouds
1:55 AM 76.1 °F - 71.6 °F 86% 29.93 in 10.0 mi SSE 10.4 mph 17.3 mph N/A   Scattered Clouds
2:15 AM 76.1 °F - 71.2 °F 85% 29.92 in 10.0 mi SSE 12.7 mph 17.3 mph N/A   Scattered Clouds
2:35 AM 75.7 °F - 71.1 °F 85% 29.91 in 10.0 mi SSE 11.5 mph 17.3 mph N/A   Scattered Clouds
2:55 AM 75.7 °F - 71.1 °F 85% 29.90 in 10.0 mi SSE 10.4 mph 16.1 mph N/A   Scattered Clouds
3:15 AM 75.7 °F - 71.1 °F 85% 29.90 in 10.0 mi SSE 10.4 mph 19.6 mph N/A   Scattered Clouds
3:35 AM 75.6 °F - 70.9 °F 85% 29.90 in 10.0 mi SSE 10.4 mph - N/A   Scattered Clouds
3:55 AM 75.6 °F - 70.7 °F 85% 29.90 in 10.0 mi SSE 11.5 mph - N/A   Scattered Clouds
4:15 AM 75.6 °F - 70.9 °F 85% 29.90 in 10.0 mi SSE 10.4 mph 16.1 mph N/A   Scattered Clouds
4:35 AM 75.7 °F - 70.9 °F 85% 29.90 in 10.0 mi SSE 8.1 mph - N/A   Scattered Clouds
4:55 AM 75.7 °F - 70.9 °F 85% 29.89 in 10.0 mi SSE 8.1 mph - N/A   Scattered Clouds
5:15 AM 75.6 °F - 70.9 °F 85% 29.89 in 10.0 mi SSE 10.4 mph - N/A   Scattered Clouds
5:35 AM 75.4 °F - 70.9 °F 86% 29.89 in 10.0 mi SSE 8.1 mph - N/A   Scattered Clouds
5:55 AM 75.2 °F - 70.7 °F 86% 29.90 in 10.0 mi SSE 8.1 mph - N/A   Mostly Cloudy
6:15 AM 75.2 °F - 70.7 °F 86% 29.90 in 10.0 mi SE 5.8 mph - N/A   Mostly Cloudy
6:35 AM 74.7 °F - 70.3 °F 86% 29.91 in 10.0 mi SE 4.6 mph - N/A   Mostly Cloudy
6:55 AM 74.5 °F - 70.3 °F 87% 29.92 in 7.0 mi SSE 4.6 mph - N/A   Mostly Cloudy
7:15 AM 74.5 °F - 70.7 °F 88% 29.92 in 7.0 mi SE 4.6 mph - N/A   Scattered Clouds
7:35 AM 75.4 °F - 71.1 °F 86% 29.92 in 7.0 mi SSE 5.8 mph - N/A   Clear
7:55 AM 76.1 °F - 71.1 °F 84% 29.93 in 10.0 mi SSE 6.9 mph - N/A   Scattered Clouds
8:15 AM 76.5 °F - 71.2 °F 84% 29.93 in 10.0 mi SE 6.9 mph - N/A   Mostly Cloudy
8:35 AM 77.9 °F - 71.6 °F 81% 29.93 in 10.0 mi SE 5.8 mph - N/A   Scattered Clouds
8:55 AM 79.2 °F - 71.4 °F 77% 29.93 in 10.0 mi SSE 9.2 mph - N/A   Scattered Clouds
9:15 AM 79.9 °F - 71.2 °F 75% 29.93 in 10.0 mi South 9.2 mph - N/A   Scattered Clouds
9:35 AM 80.8 °F 84.4 °F 70.5 °F 71% 29.93 in 10.0 mi SSE 13.8 mph 17.3 mph N/A   Scattered Clouds
9:55 AM 83.3 °F 87.4 °F 70.2 °F 64% 29.93 in 10.0 mi South 13.8 mph 21.9 mph N/A   Scattered Clouds
10:15 AM 83.8 °F 87.5 °F 68.9 °F 61% 29.92 in 10.0 mi South 11.5 mph 23.0 mph N/A   Scattered Clouds
10:35 AM 86.2 °F 89.1 °F 67.5 °F 53% 29.92 in 10.0 mi SSE 17.3 mph 24.2 mph N/A   Scattered Clouds
10:55 AM 87.1 °F 90.2 °F 67.6 °F 52% 29.92 in 10.0 mi SSE 15.0 mph 24.2 mph N/A   Scattered Clouds
11:15 AM 88.3 °F 90.5 °F 65.7 °F 47% 29.92 in 10.0 mi South 18.4 mph 31.1 mph N/A   Scattered Clouds
11:35 AM 88.0 °F 90.7 °F 66.6 °F 49% 29.92 in 10.0 mi South 15.0 mph 18.4 mph N/A   Scattered Clouds
11:55 AM 88.7 °F 91.1 °F 65.8 °F 47% 29.92 in 10.0 mi South 16.1 mph 21.9 mph N/A   Scattered Clouds
12:15 PM 89.1 °F 91.3 °F 65.8 °F 46% 29.91 in 10.0 mi SSE 11.5 mph 21.9 mph N/A   Scattered Clouds
12:35 PM 89.1 °F 92.1 °F 66.7 °F 48% 29.91 in 10.0 mi SSE 12.7 mph 18.4 mph N/A   Scattered Clouds
12:55 PM 88.7 °F 91.9 °F 67.3 °F 49% 29.91 in 10.0 mi SSE 8.1 mph - N/A   Mostly Cloudy
1:15 PM 91.2 °F 94.6 °F 67.3 °F 45% 29.90 in 10.0 mi SSE 9.2 mph - N/A   Scattered Clouds
1:35 PM 91.8 °F 94.2 °F 65.8 °F 42% 29.89 in 10.0 mi SSE 10.4 mph - N/A   Scattered Clouds
1:55 PM 89.8 °F 92.5 °F 66.7 °F 46% 29.89 in 10.0 mi SSE 16.1 mph 21.9 mph N/A   Scattered Clouds
2:15 PM 92.3 °F 96.1 °F 67.5 °F 44% 29.88 in 10.0 mi South 17.3 mph 27.6 mph N/A   Scattered Clouds
2:35 PM 91.2 °F 94.1 °F 66.6 °F 44% 29.87 in 10.0 mi SSE 12.7 mph 21.9 mph N/A   Scattered Clouds
2:55 PM 93.2 °F 96.2 °F 66.6 °F 41% 29.87 in 10.0 mi SSE 13.8 mph 25.3 mph N/A   Scattered Clouds
3:15 PM 92.8 °F 96.1 °F 66.7 °F 42% 29.86 in 10.0 mi SSE 18.4 mph 21.9 mph N/A   Scattered Clouds
3:35 PM 92.5 °F 95.9 °F 67.3 °F 43% 29.86 in 10.0 mi SE 16.1 mph 26.5 mph N/A   Scattered Clouds
3:55 PM 91.9 °F 95.4 °F 66.9 °F 44% 29.86 in 10.0 mi SSE 17.3 mph 23.0 mph N/A   Scattered Clouds
4:15 PM 92.8 °F 96.6 °F 67.1 °F 43% 29.85 in 10.0 mi South 16.1 mph 24.2 mph N/A   Scattered Clouds
4:35 PM 91.8 °F 95.5 °F 67.5 °F 45% 29.85 in 10.0 mi South 15.0 mph 20.7 mph N/A   Scattered Clouds
4:55 PM 92.5 °F 96.9 °F 68.5 °F 45% 29.84 in 10.0 mi SSE 17.3 mph 24.2 mph N/A   Scattered Clouds
5:15 PM 89.8 °F 94.6 °F 69.3 °F 51% 29.84 in 10.0 mi SE 17.3 mph 23.0 mph N/A   Scattered Clouds
5:35 PM 88.9 °F 93.8 °F 70.0 °F 53% 29.84 in 10.0 mi SE 13.8 mph 20.7 mph N/A   Clear
5:55 PM 87.3 °F 92.4 °F 70.3 °F 57% 29.84 in 10.0 mi SE 13.8 mph 23.0 mph N/A   Clear
6:15 PM 87.1 °F 92.0 °F 70.3 °F 57% 29.84 in 10.0 mi SE 16.1 mph 23.0 mph N/A   Scattered Clouds
6:35 PM 87.1 °F 91.6 °F 69.8 °F 56% 29.84 in 10.0 mi SE 13.8 mph 23.0 mph N/A   Scattered Clouds
6:55 PM 86.2 °F 90.7 °F 69.6 °F 58% 29.84 in 10.0 mi SSE 9.2 mph 21.9 mph N/A   Clear
7:15 PM 85.3 °F 90.4 °F 70.7 °F 62% 29.84 in 10.0 mi SE 12.7 mph 21.9 mph N/A   Scattered Clouds
7:35 PM 83.7 °F 88.6 °F 71.4 °F 66% 29.84 in 10.0 mi SE 13.8 mph 21.9 mph N/A   Scattered Clouds
7:55 PM 83.1 °F 88.1 °F 71.6 °F 68% 29.85 in 10.0 mi SE 12.7 mph 17.3 mph N/A   Clear
8:15 PM 82.8 °F 87.7 °F 71.6 °F 69% 29.86 in 10.0 mi SE 10.4 mph 16.1 mph N/A   Scattered Clouds
8:35 PM 82.0 °F 86.3 °F 71.1 °F 69% 29.86 in 10.0 mi SE 11.5 mph 19.6 mph N/A   Scattered Clouds
8:55 PM 81.7 °F 85.6 °F 70.7 °F 69% 29.86 in 10.0 mi SE 10.4 mph 16.1 mph N/A   Scattered Clouds
9:15 PM 81.3 °F 85.0 °F 70.3 °F 69% 29.86 in 10.0 mi SSE 13.8 mph 20.7 mph N/A   Scattered Clouds
9:35 PM 80.8 °F 84.4 °F 70.5 °F 71% 29.87 in 10.0 mi SSE 8.1 mph - N/A   Scattered Clouds
9:55 PM 80.2 °F 83.7 °F 70.9 °F 73% 29.88 in 10.0 mi SSE 9.2 mph - N/A   Scattered Clouds
10:15 PM 79.9 °F - 71.1 °F 74% 29.89 in 10.0 mi SSE 8.1 mph - N/A   Clear
10:35 PM 79.3 °F - 71.2 °F 76% 29.89 in 10.0 mi SSE 9.2 mph 17.3 mph N/A   Clear
10:55 PM 78.8 °F - 71.2 °F 78% 29.89 in 10.0 mi SSE 9.2 mph - N/A   Clear
11:15 PM 78.4 °F - 71.6 °F 79% 29.89 in 10.0 mi SSE 8.1 mph - N/A   Clear
11:35 PM 78.1 °F - 71.6 °F 80% 29.90 in 10.0 mi SSE 6.9 mph - N/A   Scattered Clouds
11:55 PM 77.9 °F - 71.6 °F 81% 29.90 in 10.0 mi SSE 6.9 mph - N/A   Scattered Clouds